Tracking 32523 objects as of 13-Dec-2025
HD Live streaming from Space Station
objects crossing your sky now

STARLINK-4462

Track STARLINK-4462 now!
10-day predictions
STARLINK-4462 is classified as:


NORAD ID: 53781
Int'l Code: 2022-111J
Perigee: 546.0 km
Apogee: 547.8 km
Inclination: 53.2 °
Period: 95.4 minutes
Semi major axis: 6917 km
RCS: Unknown
Launch date: September 11, 2022
Source: United States (US)
Launch site: AIR FORCE EASTERN TEST RANGE (AFETR)
Your satellite tracking list
Your tracking list is empty




NASA's NSSDC Master Catalog

Two Line Element Set (TLE):
1 53781U 22111J   25347.29577419 -.00000351  00000-0 -39909-5 0  9992
2 53781  53.2164 301.9538 0001348  87.8476 272.2670 15.08836338180653
Source of the keplerian elements: AFSPC